Flag for Austria Weather past 2 weeks in Kirchdorf an der Krems, Upper Austria, Austria

Now
66 °F

Mild.


Feels Like: 66 °F
Forecast: 57 / 69 °F
Wind: 5 mph from Southwest

Location: Kremsmuenster

Current Time: Jul 29, 2015 at 8:08:48 PM

Latest Report: Jul 29, 2015 at 7:00 PM


Visibility: N/A

Pressure: 29.82 "Hg

Humidity: 81%

Dew point: 60 °F

Location of Kirchdorf an der KremsLocation

Historic Weather in Kirchdorf an der Krems — Graph

°F

Kirchdorf an der Krems temperature yesterday

Maximum temperature yesterday: 73 °F (at 4:00 PM)
Minimum temperature yesterday: 63 °F (at 6:00 AM)
Average temperature yesterday: 69 °F

Past Weeks' High & Low Weather Summary

 TemperatureHumidityPressure
High96 °F (Jul 22, 5:00 PM)91% (Jul 29, 5:00 AM)30.12 "Hg (Jul 29, 5:00 AM)
Low54 °F (Jul 29, 6:00 AM)23% (Jul 17, 4:00 PM)29.66 "Hg (Jul 25, 3:00 AM)
Average74 °F61%29.91 "Hg
* Reported Jul 14 6:00 PM — Jul 29 6:00 PM, Kirchdorf an der Krems, Weather by CustomWeather, © 2015

Note: Actual official high and low records may vary slightly from our data, if they occured in-between our weather recording intervals... More about our weather records

Advertising

Kirchdorf an der Krems weather history for previous 24 hours

 ConditionsComfort  
Time TempWeatherWind HumidityBarometerVisibility
6:00 PM
Wed, Jul 29
68 °FMild.2 mph75%29.80 "HgN/A
5:00 PM71 °FLight rain. Overcast.3 mph65%29.78 "Hg12 mi
4:00 PM73 °FMild.1 mph52%29.75 "HgN/A
3:00 PM71 °FMild.2 mph58%29.77 "HgN/A
2:00 PM69 °FMild.3 mph63%29.80 "HgN/A
1:00 PM68 °FMild.2 mph64%29.82 "HgN/A
12:00 PM65 °FMild.2 mph68%29.84 "HgN/A
11:00 AM64 °FScattered clouds.1 mph68%29.88 "Hg11 mi
10:00 AM60 °FCool.2 mph82%29.91 "HgN/A
9:00 AM57 °FCool.1 mph84%29.93 "HgN/A
8:00 AM55 °FLight rain. Overcast.1 mph88%29.94 "Hg9 mi
7:00 AM55 °FOvercast.2 mph90%29.96 "Hg7 mi
6:00 AM54 °FSprinkles. Cloudy.5 mph88%29.96 "HgN/A
5:00 AM55 °FCool.5 mph91%29.96 "HgN/A
4:00 AM56 °FFog.5 mph87%29.96 "HgN/A
3:00 AM58 °FCool.5 mph79%29.92 "HgN/A
2:00 AM66 °FMild.5 mph62%29.85 "HgN/A
1:00 AM66 °FMild.5 mph65%29.84 "HgN/A
12:00 AM67 °FMild.3 mph64%29.83 "HgN/A
10:00 PM
Tue, Jul 28
68 °FMild.3 mph62%29.80 "HgN/A
9:00 PM69 °FMild.3 mph59%29.79 "HgN/A
8:00 PM71 °FOvercast.1 mph52%29.78 "Hg25 mi
Weather by CustomWeather, © 2015

See weather overviewHow to use our weather pages